Weather History for NW Arkansas Airport, AR

Change the Weather History Date:

Tuesday, March 19, 2013

  Actual Average Record
Temperature  
Mean Temperature 42 °F -  
Max Temperature 55 °F - - ()
Min Temperature 30 °F - - ()
Degree Days  
Heating Degree Days 22    
Moisture  
Dew Point 26 °F    
Average Humidity 56    
Maximum Humidity 89    
Minimum Humidity 25    
Precipitation  
Precipitation 0.00 in - - ()
Sea Level Pressure  
Sea Level Pressure 30.15 in    
Wind  
Wind Speed 4 mph (NE)    
Max Wind Speed 14 mph    
Max Gust Speed 23 mph    
Visibility 10 miles    
Events      
T = Trace of Precipitation, MM = Missing Value Source: NWS Daily Summary

Daily Weather History Graph

Daily Weather History Graph

Search for Another Location

Airport:

Trip Planner

Search our weather history database for the weather conditions in past years. The results will help you decide how hot, cold, wet, or windy it might be!

Date:

Astronomy

Mar. 19, 2013 Rise Set
Actual Time 7:21 AM CDT 7:28 PM CDT
Civil Twilight 6:56 AM CDT 7:54 PM CDT
Nautical Twilight 6:26 AM CDT 8:24 PM CDT
Astronomical Twilight 5:56 AM CDT 8:54 PM CDT
Moon 12:22 PM CDT (3/19) 2:06 AM CDT (3/19)
Length of Visible Light 12h 57m
Length of Day
12h 06m
Waxing Crescent, 50% of the Moon is Illuminated
Mar 19
Waxing Crescent
Mar 19
First Quarter
Mar 27
Full
Apr 2
Last Quarter
Apr 10
New

Hourly Weather History & Observations

Time (CDT) Temp. Windchill Dew Point Humidity Pressure Visibility Wind Dir Wind Speed Gust Speed Precip Events Conditions
12:53 AM 34.0 °F - 30.9 °F 89% 30.07 in 10.0 mi Calm Calm - N/A   Clear
1:53 AM 33.1 °F 28.7 °F 28.9 °F 85% 30.05 in 10.0 mi NNE 4.6 mph - N/A   Clear
2:53 AM 34.0 °F 29.8 °F 28.0 °F 79% 30.07 in 10.0 mi North 4.6 mph - N/A   Clear
3:53 AM 35.1 °F 31.0 °F 28.0 °F 76% 30.04 in 10.0 mi NE 4.6 mph - N/A   Clear
5:53 AM 34.0 °F 29.8 °F 28.0 °F 79% 30.09 in 10.0 mi NNE 4.6 mph - N/A   Clear
6:53 AM 33.1 °F - 28.0 °F 82% 30.13 in 10.0 mi Calm Calm - N/A   Clear
7:53 AM 30.9 °F - 27.0 °F 85% 30.16 in 10.0 mi Calm Calm - N/A   Scattered Clouds
8:53 AM 37.0 °F 34.5 °F 30.0 °F 76% 30.17 in 10.0 mi NE 3.5 mph - N/A   Partly Cloudy
9:53 AM 42.1 °F 37.7 °F 26.1 °F 53% 30.19 in 10.0 mi East 6.9 mph - N/A   Partly Cloudy
10:53 AM 46.0 °F 43.1 °F 27.0 °F 47% 30.19 in 10.0 mi ENE 5.8 mph - N/A   Clear
11:53 AM 48.9 °F - 21.0 °F 33% 30.19 in 10.0 mi ESE 5.8 mph - N/A   Clear
12:53 PM 51.1 °F - 21.0 °F 31% 30.18 in 9.0 mi ENE 10.4 mph - N/A   Clear
1:53 PM 53.1 °F - 21.0 °F 29% 30.16 in 10.0 mi SE 8.1 mph - N/A   Clear
2:53 PM 54.0 °F - 19.0 °F 25% 30.13 in 10.0 mi Variable 5.8 mph - N/A   Partly Cloudy
3:53 PM 55.0 °F - 21.0 °F 27% 30.12 in 10.0 mi Variable 3.5 mph - N/A   Clear
4:53 PM 55.0 °F - 23.0 °F 29% 30.13 in 9.0 mi North 6.9 mph - N/A   Overcast
5:53 PM 54.0 °F - 24.1 °F 31% 30.14 in 10.0 mi North 4.6 mph - N/A   Partly Cloudy
7:53 PM 44.1 °F 37.4 °F 25.0 °F 47% 30.18 in 10.0 mi NNE 13.8 mph 23.0 mph N/A   Clear
8:53 PM 43.0 °F 36.4 °F 26.1 °F 51% 30.21 in 10.0 mi NE 12.7 mph - N/A   Clear
9:53 PM 42.1 °F 35.7 °F 26.1 °F 53% 30.24 in 10.0 mi NE 11.5 mph - N/A   Partly Cloudy
10:53 PM 39.9 °F 35.8 °F 28.0 °F 63% 30.25 in 10.0 mi ENE 5.8 mph - N/A   Scattered Clouds
11:53 PM 36.0 °F 33.3 °F 27.0 °F 70% 30.26 in 10.0 mi NE 3.5 mph - N/A   Clear